Location: Dieppe
(49.9230°N, 1.0775°E)
Time: 15:41:35
(UTC+02:00)

ISS - Pass Details

Date: 29 May 2018
Orbit: 402 x 406 km, 51.6° (Epoch: 18 June)

Event Time Altitude Azimuth Distance (km) Brightness Sun altitude
Rises 23:15:41 0° 280° (W) 2,324 0.8 -10.3°
Reaches altitude 10° 23:17:46 10° 284° (WNW) 1,463 -0.2 -10.5°
Maximum altitude 23:21:02 66° 7° (N) 446 -3.5 -10.8°
Drops below altitude 10° 23:24:18 10° 91° (E) 1,459 -1.4 -11.1°
Enters shadow 23:24:54 - 92° (E) 1,704 -1.0 -11.2°
